| time (UTC) | temp C | wind direction | speed KPH | gust KPH | rain 1hr cm | rain 24hr cm | rain mn cm | humidity % | barometer mb |
| 20260507130904 | 14 | 106 | 4.8 | 11.3 | 0.00 | 0.13 | 0.13 | 77 | 1015.3 |
| 20260507130406 | 14 | 143 | 3.2 | 11.3 | 0.00 | 0.13 | 0.13 | 77 | 1015.3 |
| 20260507125906 | 14 | 232 | 4.8 | 14.5 | 0.00 | 0.13 | 0.13 | 77 | 1015.4 |
| 20260507125718 | 14 | 197 | 4.8 | 12.9 | 0.00 | 0.13 | 0.13 | 76 | 1015.4 |
| 20260507125714 | 14 | 42 | 4.8 | 14.5 | 0.00 | 0.13 | 0.13 | 77 | 1015.4 |
| 20260507124407 | 14 | 207 | 4.8 | 19.3 | 0.00 | 0.13 | 0.13 | 76 | 1015.5 |
| 20260507123907 | 14 | 168 | 6.4 | 19.3 | 0.00 | 0.13 | 0.13 | 76 | 1015.4 |
| 20260507123409 | 14 | 148 | 4.8 | 17.7 | 0.00 | 0.13 | 0.13 | 76 | 1015.4 |
| 20260507122907 | 14 | 140 | 3.2 | 17.7 | 0.00 | 0.13 | 0.13 | 76 | 1015.4 |
| 20260507122647 | 14 | 110 | 3.2 | 11.3 | 0.00 | 0.13 | 0.13 | 76 | 1015.3 |
| 20260507121909 | 14 | 154 | 4.8 | 14.5 | 0.00 | 0.13 | 0.13 | 76 | 1015.3 |
| 20260507121652 | 14 | 170 | 6.4 | 17.7 | 0.00 | 0.13 | 0.13 | 75 | 1015.3 |
| 20260507120905 | 14 | 32 | 4.8 | 17.7 | 0.00 | 0.13 | 0.13 | 75 | 1015.3 |
| 20260507120646 | 14 | 120 | 4.8 | 12.9 | 0.00 | 0.13 | 0.13 | 75 | 1015.3 |
| 20260507115907 | 14 | 236 | 4.8 | 16.1 | 0.00 | 0.13 | 0.13 | 75 | 1015.4 |
| 20260507115405 | 14 | 149 | 6.4 | 16.1 | 0.00 | 0.13 | 0.13 | 75 | 1015.3 |
| 20260507114906 | 14 | 134 | 6.4 | 17.7 | 0.00 | 0.13 | 0.13 | 76 | 1015.4 |
| 20260507114406 | 14 | 99 | 4.8 | 17.7 | 0.00 | 0.13 | 0.13 | 75 | 1015.4 |
| 20260507113905 | 14 | 288 | 4.8 | 16.1 | 0.00 | 0.13 | 0.13 | 75 | 1015.4 |
| 20260507113653 | 15 | 176 | 6.4 | 19.3 | 0.00 | 0.13 | 0.13 | 75 | 1015.4 |
| 20260507112904 | 15 | 66 | 6.4 | 19.3 | 0.00 | 0.13 | 0.13 | 74 | 1015.5 |
| 20260507112405 | 15 | 168 | 4.8 | 16.1 | 0.00 | 0.13 | 0.13 | 74 | 1015.6 |
| 20260507111907 | 15 | 258 | 6.4 | 16.1 | 0.00 | 0.13 | 0.13 | 75 | 1015.5 |
| 20260507111406 | 14 | 200 | 6.4 | 17.7 | 0.00 | 0.13 | 0.13 | 74 | 1015.6 |
| 20260507110908 | 15 | 165 | 6.4 | 17.7 | 0.00 | 0.13 | 0.13 | 74 | 1015.5 |
| 20260507110412 | 15 | 225 | 6.4 | 17.7 | 0.00 | 0.13 | 0.13 | 74 | 1015.5 |
| 20260507105907 | 14 | 71 | 6.4 | 17.7 | 0.00 | 0.13 | 0.13 | 74 | 1015.6 |
| 20260507105405 | 14 | 185 | 6.4 | 17.7 | 0.00 | 0.13 | 0.13 | 75 | 1015.5 |
| 20260507104906 | 14 | 204 | 6.4 | 17.7 | 0.00 | 0.13 | 0.13 | 76 | 1015.4 |
| 20260507104406 | 14 | 135 | 6.4 | 17.7 | 0.00 | 0.13 | 0.13 | 76 | 1015.5 |
| 20260507103907 | 14 | 191 | 6.4 | 17.7 | 0.00 | 0.13 | 0.13 | 76 | 1015.6 |
| 20260507103408 | 14 | 159 | 8.0 | 20.9 | 0.00 | 0.13 | 0.13 | 76 | 1015.6 |
| 20260507102906 | 14 | 103 | 8.0 | 20.9 | 0.00 | 0.13 | 0.13 | 76 | 1015.6 |
| 20260507102406 | 14 | 147 | 8.0 | 24.1 | 0.00 | 0.13 | 0.13 | 76 | 1015.7 |
| 20260507102143 | 14 | 183 | 8.0 | 24.1 | 0.00 | 0.13 | 0.13 | 76 | 1015.6 |
| 20260507101406 | 14 | 102 | 8.0 | 19.3 | 0.00 | 0.13 | 0.13 | 76 | 1015.5 |
| 20260507100910 | 14 | 207 | 8.0 | 19.3 | 0.00 | 0.13 | 0.13 | 75 | 1015.6 |
| 20260507100708 | 14 | 136 | 8.0 | 17.7 | 0.00 | 0.13 | 0.13 | 75 | 1015.7 |
| 20260507095906 | 15 | 192 | 8.0 | 22.5 | 0.00 | 0.13 | 0.13 | 74 | 1015.6 |
| 20260507095403 | 15 | 185 | 6.4 | 22.5 | 0.00 | 0.13 | 0.13 | 73 | 1015.6 |
| 20260507094907 | 15 | 206 | 8.0 | 16.1 | 0.00 | 0.13 | 0.13 | 72 | 1015.6 |
| 20260507094416 | 14 | 191 | 8.0 | 20.9 | 0.00 | 0.13 | 0.13 | 72 | 1015.6 |
| 20260507094149 | 15 | 260 | 6.4 | 20.9 | 0.00 | 0.13 | 0.13 | 73 | 1015.6 |
| 20260507093406 | 15 | 131 | 6.4 | 17.7 | 0.00 | 0.13 | 0.13 | 73 | 1015.7 |
| 20260507093153 | 15 | 171 | 6.4 | 17.7 | 0.00 | 0.13 | 0.13 | 72 | 1015.6 |
| 20260507092405 | 15 | 158 | 6.4 | 16.1 | 0.00 | 0.13 | 0.13 | 72 | 1015.7 |
| 20260507091905 | 15 | 181 | 8.0 | 16.1 | 0.00 | 0.13 | 0.13 | 72 | 1015.7 |
| 20260507091418 | 15 | 97 | 8.0 | 22.5 | 0.00 | 0.13 | 0.13 | 74 | 1015.7 |
| 20260507090903 | 15 | 261 | 8.0 | 22.5 | 0.00 | 0.13 | 0.13 | 74 | 1015.7 |
| 20260507090411 | 15 | 152 | 8.0 | 17.7 | 0.00 | 0.13 | 0.13 | 75 | 1015.6 |
| 20260507085903 | 15 | 152 | 8.0 | 19.3 | 0.00 | 0.13 | 0.13 | 75 | 1015.5 |
| 20260507085404 | 15 | 80 | 6.4 | 19.3 | 0.00 | 0.13 | 0.13 | 74 | 1015.4 |
| 20260507085153 | 15 | 133 | 8.0 | 24.1 | 0.00 | 0.13 | 0.13 | 75 | 1015.5 |
| 20260507084404 | 15 | 221 | 8.0 | 24.1 | 0.00 | 0.13 | 0.13 | 74 | 1015.4 |
| 20260507083906 | 15 | 176 | 8.0 | 19.3 | 0.00 | 0.13 | 0.13 | 75 | 1015.4 |
| 20260507083406 | 15 | 244 | 8.0 | 16.1 | 0.00 | 0.13 | 0.13 | 76 | 1015.3 |
| 20260507082907 | 15 | 181 | 8.0 | 16.1 | 0.00 | 0.13 | 0.13 | 76 | 1015.2 |
| 20260507082710 | 15 | 118 | 6.4 | 17.7 | 0.00 | 0.13 | 0.13 | 76 | 1015.1 |
| 20260507081905 | 14 | 117 | 6.4 | 17.7 | 0.05 | 0.13 | 0.13 | 77 | 1015.2 |
| 20260507081404 | 14 | 179 | 6.4 | 19.3 | 0.08 | 0.13 | 0.13 | 78 | 1015.1 |
| 20260507081148 | 13 | 222 | 4.8 | 19.3 | 0.08 | 0.13 | 0.13 | 79 | 1015.2 |
| 20260507080401 | 13 | 181 | 3.2 | 12.9 | 0.08 | 0.13 | 0.13 | 78 | 1015.2 |
| 20260507075902 | 13 | 228 | 3.2 | 11.3 | 0.08 | 0.13 | 0.13 | 79 | 1015.1 |
| 20260507075401 | 13 | 184 | 4.8 | 11.3 | 0.08 | 0.13 | 0.13 | 79 | 1014.9 |
| 20260507074901 | 13 | 204 | 4.8 | 11.3 | 0.08 | 0.13 | 0.13 | 79 | 1014.9 |
| 20260507074402 | 13 | 243 | 3.2 | 9.7 | 0.08 | 0.13 | 0.13 | 79 | 1014.9 |
| 20260507073901 | 13 | 247 | 1.6 | 4.8 | 0.08 | 0.13 | 0.13 | 78 | 1014.8 |
| 20260507073401 | 13 | 94 | 0.0 | 3.2 | 0.08 | 0.13 | 0.13 | 77 | 1014.8 |
| 20260507072903 | 13 | 93 | 1.6 | 3.2 | 0.08 | 0.13 | 0.13 | 76 | 1014.8 |
| 20260507072401 | 13 | 93 | 1.6 | 6.4 | 0.08 | 0.13 | 0.10 | 76 | 1014.7 |
| 20260507071859 | 13 | 90 | 3.2 | 12.9 | 0.03 | 0.05 | 0.05 | 75 | 1014.8 |
| 20260507071358 | 13 | 116 | 4.8 | 12.9 | 0.00 | 0.05 | 0.05 | 74 | 1014.6 |
| 20260507071158 | 14 | 58 | 3.2 | 6.4 | 0.00 | 0.05 | 0.05 | 75 | 1014.7 |
| 20260507070354 | 13 | 235 | 3.2 | 8.0 | 0.00 | 0.05 | 0.05 | 76 | 1014.7 |
| 20260507070139 | 13 | 238 | 1.6 | 8.0 | 0.00 | 0.05 | 0.05 | 76 | 1014.7 |
| 20260507065357 | 13 | 82 | 1.6 | 6.4 | 0.00 | 0.05 | 0.05 | 77 | 1014.7 |
| 20260507064856 | 13 | 285 | 1.6 | 6.4 | 0.00 | 0.05 | 0.05 | 77 | 1014.6 |
| 20260507064354 | 13 | 268 | 1.6 | 4.8 | 0.00 | 0.05 | 0.05 | 77 | 1014.5 |
| 20260507063852 | 13 | 268 | 1.6 | 3.2 | 0.00 | 0.05 | 0.05 | 76 | 1014.5 |
| 20260507063351 | 13 | 268 | 1.6 | 4.8 | 0.00 | 0.05 | 0.05 | 75 | 1014.4 |
| 20260507062847 | 13 | 268 | 1.6 | 6.4 | 0.00 | 0.05 | 0.05 | 75 | 1014.4 |
| 20260507062341 | 13 | 102 | 1.6 | 6.4 | 0.00 | 0.05 | 0.05 | 75 | 1014.3 |
| 20260507061841 | 13 | 174 | 1.6 | 3.2 | 0.00 | 0.05 | 0.05 | 76 | 1014.4 |
| 20260507061629 | 13 | 174 | 1.6 | 4.8 | 0.00 | 0.10 | 0.05 | 76 | 1014.4 |
| 20260507060840 | 13 | 87 | 1.6 | 4.8 | 0.00 | 0.20 | 0.05 | 76 | 1014.4 |
| 20260507060339 | 13 | 210 | 1.6 | 3.2 | 0.00 | 0.20 | 0.05 | 76 | 1014.3 |
| 20260507055839 | 12 | 192 | 1.6 | 3.2 | 0.03 | 0.20 | 0.05 | 76 | 1014.3 |
| 20260507055339 | 12 | 245 | 0.0 | 3.2 | 0.05 | 0.20 | 0.05 | 77 | 1014.3 |
| 20260507054839 | 12 | 75 | 0.0 | 3.2 | 0.05 | 0.20 | 0.05 | 77 | 1014.3 |
| 20260507054339 | 12 | 75 | 1.6 | 4.8 | 0.05 | 0.20 | 0.05 | 77 | 1014.1 |
| 20260507054120 | 12 | 74 | 1.6 | 4.8 | 0.05 | 0.20 | 0.05 | 78 | 1014.1 |
| 20260507053339 | 12 | 66 | 1.6 | 4.8 | 0.05 | 0.20 | 0.05 | 78 | 1014.1 |
| 20260507052842 | 12 | 280 | 3.2 | 4.8 | 0.05 | 0.20 | 0.05 | 78 | 1013.9 |
| 20260507052336 | 12 | 4 | 1.6 | 4.8 | 0.05 | 0.20 | 0.05 | 78 | 1013.8 |
| 20260507052119 | 12 | 192 | 1.6 | 3.2 | 0.05 | 0.20 | 0.05 | 77 | 1013.8 |
| 20260507051332 | 12 | 192 | 1.6 | 3.2 | 0.05 | 0.20 | 0.05 | 78 | 1013.8 |
| 20260507051136 | 12 | 266 | 0.0 | 3.2 | 0.05 | 0.20 | 0.05 | 78 | 1013.7 |
| 20260507050332 | 12 | 266 | 1.6 | 4.8 | 0.05 | 0.20 | 0.05 | 77 | 1013.7 |
| 20260507045833 | 12 | 267 | 1.6 | 4.8 | 0.03 | 0.18 | 0.03 | 78 | 1013.7 |
| 20260507045334 | 12 | 156 | 0.0 | 3.2 | 0.00 | 0.15 | 0.00 | 78 | 1013.7 |
| 20260507044838 | 12 | 50 | 1.6 | 3.2 | 0.00 | 0.15 | 0.00 | 78 | 1013.5 |
| 20260507044335 | 12 | 50 | 1.6 | 4.8 | 0.00 | 0.15 | 0.00 | 78 | 1013.5 |
| 20260507043835 | 12 | 50 | 0.0 | 4.8 | 0.00 | 0.15 | 0.00 | 79 | 1013.5 |
| 20260507043339 | 12 | 298 | 1.6 | 4.8 | 0.00 | 0.18 | 0.00 | 79 | 1013.5 |
| 20260507042835 | 12 | 298 | 1.6 | 4.8 | 0.00 | 0.18 | 0.00 | 78 | 1013.4 |
| 20260507042335 | 12 | 60 | 0.0 | 3.2 | 0.00 | 0.28 | 0.00 | 79 | 1013.4 |
| 20260507041836 | 12 | 283 | 0.0 | 3.2 | 0.00 | 0.43 | 0.00 | 79 | 1013.3 |
| 20260507041335 | 12 | 283 | 0.0 | 3.2 | 0.00 | 0.43 | 0.00 | 79 | 1013.4 |
| 20260507040836 | 12 | 284 | 0.0 | 3.2 | 0.00 | 0.43 | 0.00 | 79 | 1013.4 |
| 20260507040340 | 12 | 284 | 1.6 | 4.8 | 0.00 | 0.43 | 0.00 | 79 | 1013.3 |
| 20260507035832 | 12 | 283 | 1.6 | 4.8 | 0.00 | 0.43 | 0.00 | 79 | 1013.3 |
| 20260507035333 | 12 | 283 | 1.6 | 4.8 | 0.00 | 0.43 | 0.00 | 79 | 1013.4 |
| 20260507034837 | 12 | 93 | 1.6 | 3.2 | 0.00 | 0.43 | 0.00 | 79 | 1013.4 |
| 20260507034334 | 12 | 93 | 1.6 | 6.4 | 0.00 | 0.43 | 0.00 | 79 | 1013.4 |
| 20260507033831 | 12 | 108 | 1.6 | 6.4 | 0.00 | 0.43 | 0.00 | 79 | 1013.3 |
| 20260507033333 | 12 | 291 | 1.6 | 3.2 | 0.00 | 0.43 | 0.00 | 79 | 1013.3 |
| 20260507033132 | 12 | 291 | 1.6 | 3.2 | 0.00 | 0.43 | 0.00 | 79 | 1013.4 |
| 20260507032332 | 12 | 290 | 1.6 | 3.2 | 0.00 | 0.43 | 0.00 | 79 | 1013.3 |
| 20260507031832 | 12 | 291 | 1.6 | 4.8 | 0.00 | 0.43 | 0.00 | 79 | 1013.3 |
| 20260507031333 | 12 | 279 | 1.6 | 4.8 | 0.00 | 0.46 | 0.00 | 79 | 1013.3 |
| 20260507030832 | 12 | 45 | 1.6 | 3.2 | 0.00 | 0.46 | 0.00 | 79 | 1013.2 |
| 20260507030334 | 12 | 45 | 1.6 | 4.8 | 0.00 | 0.46 | 0.00 | 79 | 1013.2 |
| 20260507025828 | 12 | 16 | 1.6 | 6.4 | 0.00 | 0.48 | 0.00 | 79 | 1013.2 |
| 20260507025329 | 12 | 81 | 1.6 | 6.4 | 0.00 | 0.51 | 0.00 | 79 | 1013.3 |
| 20260507025110 | 12 | 297 | 1.6 | 3.2 | 0.00 | 0.69 | 0.00 | 79 | 1013.2 |
| 20260507024325 | 12 | 297 | 1.6 | 6.4 | 0.00 | 1.14 | 0.00 | 79 | 1013.3 |
| 20260507023823 | 12 | 297 | 1.6 | 6.4 | 0.00 | 1.57 | 0.00 | 79 | 1013.3 |
| 20260507023326 | 12 | 297 | 1.6 | 4.8 | 0.00 | 1.80 | 0.00 | 79 | 1013.4 |
| 20260507022829 | 12 | 297 | 3.2 | 6.4 | 0.00 | 1.91 | 0.00 | 79 | 1013.4 |
| 20260507022605 | 12 | 297 | 3.2 | 6.4 | 0.00 | 1.96 | 0.00 | 79 | 1013.4 |
| 20260507021822 | 12 | 304 | 1.6 | 4.8 | 0.00 | 2.03 | 0.00 | 79 | 1013.3 |
| 20260507021321 | 12 | 304 | 1.6 | 4.8 | 0.00 | 2.08 | 0.00 | 79 | 1013.3 |
| 20260507020823 | 12 | 304 | 1.6 | 4.8 | 0.00 | 2.13 | 0.00 | 79 | 1013.3 |
| 20260507020323 | 12 | 304 | 1.6 | 3.2 | 0.00 | 2.21 | 0.00 | 79 | 1013.3 |
| 20260507015825 | 12 | 304 | 1.6 | 3.2 | 0.00 | 2.29 | 0.00 | 79 | 1013.4 |
| 20260507015324 | 12 | 304 | 1.6 | 3.2 | 0.00 | 2.44 | 0.00 | 80 | 1013.3 |
| 20260507014819 | 12 | 304 | 1.6 | 6.4 | 0.00 | 2.72 | 0.00 | 80 | 1013.3 |
| 20260507014318 | 12 | 304 | 3.2 | 6.4 | 0.00 | 2.74 | 0.00 | 80 | 1013.2 |
| 20260507014108 | 12 | 296 | 3.2 | 6.4 | 0.00 | 2.77 | 0.00 | 80 | 1013.2 |
| 20260507013318 | 12 | 293 | 3.2 | 4.8 | 0.00 | 2.77 | 0.00 | 80 | 1013.2 |
| 20260507012817 | 12 | 293 | 1.6 | 4.8 | 0.00 | 2.79 | 0.00 | 80 | 1013.2 |
| 20260507012318 | 12 | 293 | 0.0 | 3.2 | 0.00 | 2.82 | 0.00 | 80 | 1013.3 |
| 20260507011814 | 12 | 293 | 0.0 | 3.2 | 0.00 | 2.84 | 0.00 | 80 | 1013.3 |
| 20260507011315 | 12 | 293 | 1.6 | 3.2 | 0.00 | 2.84 | 0.00 | 80 | 1013.3 |
| 20260507010810 | 12 | 255 | 1.6 | 3.2 | 0.00 | 2.87 | 0.00 | 79 | 1013.3 |
| 20260507010308 | 12 | 255 | 1.6 | 4.8 | 0.00 | 2.87 | 0.00 | 80 | 1013.3 |
| 20260507005807 | 12 | 255 | 1.6 | 4.8 | 0.00 | 2.87 | 0.00 | 80 | 1013.4 |
| 20260507005306 | 12 | 255 | 1.6 | 4.8 | 0.00 | 2.87 | 0.00 | 80 | 1013.4 |
| 20260507005046 | 12 | 255 | 1.6 | 8.0 | 0.00 | 2.87 | 0.00 | 80 | 1013.4 |
| 20260507004305 | 12 | 250 | 1.6 | 8.0 | 0.00 | 2.87 | 0.00 | 80 | 1013.4 |
| 20260507003806 | 12 | 315 | 1.6 | 4.8 | 0.00 | 2.87 | 0.00 | 80 | 1013.4 |
| 20260507003347 | 12 | 295 | 1.6 | 3.2 | 0.00 | 2.87 | 0.00 | 80 | 1013.4 |
| 20260507003330 | 12 | 297 | 1.6 | 4.8 | 0.00 | 2.87 | 0.00 | 80 | 1013.3 |
| 20260507002305 | 12 | 295 | 1.6 | 3.2 | 0.00 | 2.87 | 0.00 | 80 | 1013.4 |
| 20260507001803 | 12 | 295 | 1.6 | 3.2 | 0.00 | 2.87 | 0.00 | 80 | 1013.3 |
| 20260507001302 | 12 | 295 | 1.6 | 4.8 | 0.00 | 2.87 | 0.00 | 80 | 1013.4 |
| 20260507000802 | 12 | 295 | 1.6 | 4.8 | 0.00 | 2.87 | 0.00 | 80 | 1013.4 |
| 20260507000302 | 12 | 300 | 1.6 | 4.8 | 0.00 | 2.87 | 0.00 | 80 | 1013.4 |
| 20260506235802 | 12 | 300 | 1.6 | 4.8 | 0.00 | 2.87 | 0.00 | 80 | 1013.4 |
| 20260506235306 | 12 | 301 | 1.6 | 4.8 | 0.00 | 2.87 | 0.00 | 80 | 1013.5 |
| 20260506234802 | 12 | 301 | 1.6 | 4.8 | 0.00 | 2.87 | 0.00 | 80 | 1013.5 |
| 20260506234303 | 12 | 237 | 1.6 | 6.4 | 0.00 | 2.87 | 0.00 | 80 | 1013.5 |
| 20260506234051 | 12 | 294 | 3.2 | 6.4 | 0.00 | 2.87 | 0.00 | 80 | 1013.6 |
| 20260506233308 | 12 | 295 | 3.2 | 4.8 | 0.00 | 2.87 | 0.00 | 80 | 1013.6 |
| 20260506232802 | 12 | 283 | 1.6 | 4.8 | 0.00 | 2.87 | 0.00 | 80 | 1013.7 |
| 20260506232306 | 12 | 315 | 1.6 | 4.8 | 0.00 | 2.87 | 0.00 | 80 | 1013.7 |
| 20260506232100 | 12 | 315 | 1.6 | 4.8 | 0.00 | 2.87 | 0.00 | 80 | 1013.6 |
| 20260506231253 | 12 | 260 | 3.2 | 9.7 | 0.00 | 2.87 | 0.00 | 80 | 1013.6 |
| 20260506230751 | 12 | 245 | 3.2 | 9.7 | 0.00 | 2.87 | 0.00 | 80 | 1013.6 |
| 20260506230249 | 12 | 236 | 3.2 | 9.7 | 0.00 | 2.87 | 0.00 | 80 | 1013.5 |
| 20260506225749 | 12 | 224 | 3.2 | 8.0 | 0.00 | 2.87 | 0.00 | 80 | 1013.5 |
| 20260506225249 | 12 | 183 | 1.6 | 6.4 | 0.00 | 2.87 | 0.00 | 80 | 1013.6 |
| 20260506224749 | 12 | 274 | 1.6 | 4.8 | 0.00 | 2.87 | 0.00 | 80 | 1013.6 |
| 20260506224249 | 12 | 225 | 1.6 | 6.4 | 0.00 | 2.87 | 0.00 | 80 | 1013.5 |
| 20260506224035 | 12 | 227 | 1.6 | 6.4 | 0.00 | 2.87 | 0.00 | 80 | 1013.5 |
| 20260506223248 | 12 | 239 | 3.2 | 14.5 | 0.00 | 2.87 | 0.00 | 80 | 1013.4 |
| 20260506222746 | 12 | 291 | 3.2 | 14.5 | 0.00 | 2.87 | 0.00 | 80 | 1013.4 |
| 20260506222250 | 12 | 232 | 3.2 | 9.7 | 0.00 | 2.87 | 0.00 | 79 | 1013.4 |
| 20260506222044 | 12 | 248 | 3.2 | 9.7 | 0.00 | 2.87 | 0.00 | 80 | 1013.4 |
| 20260506221527 | 12 | 207 | 1.6 | 9.7 | 0.00 | 2.87 | 0.00 | 80 | 1013.4 |
| 20260506221031 | 12 | 270 | 1.6 | 8.0 | 0.00 | 2.87 | 0.00 | 80 | 1013.4 |
| 20260506220242 | 12 | 233 | 1.6 | 6.4 | 0.00 | 2.87 | 0.00 | 80 | 1013.5 |
| 20260506215739 | 12 | 305 | 3.2 | 6.4 | 0.00 | 2.87 | 2.87 | 80 | 1013.5 |
| 20260506215242 | 12 | 298 | 3.2 | 6.4 | 0.00 | 2.87 | 2.87 | 80 | 1013.4 |
| 20260506214736 | 12 | 258 | 1.6 | 8.0 | 0.00 | 2.87 | 2.87 | 80 | 1013.5 |
| 20260506214236 | 12 | 207 | 1.6 | 9.7 | 0.00 | 2.87 | 2.87 | 80 | 1013.5 |
| 20260506213737 | 12 | 280 | 1.6 | 9.7 | 0.00 | 2.87 | 2.87 | 80 | 1013.5 |
| 20260506213239 | 12 | 287 | 1.6 | 6.4 | 0.00 | 2.87 | 2.87 | 80 | 1013.5 |
| 20260506212736 | 12 | 280 | 1.6 | 4.8 | 0.00 | 2.87 | 2.87 | 80 | 1013.5 |
| 20260506212239 | 12 | 281 | 1.6 | 6.4 | 0.00 | 2.87 | 2.87 | 80 | 1013.4 |
| 20260506211737 | 12 | 209 | 1.6 | 6.4 | 0.00 | 2.87 | 2.87 | 80 | 1013.5 |
| 20260506211236 | 12 | 258 | 1.6 | 4.8 | 0.00 | 2.87 | 2.87 | 80 | 1013.5 |
| 20260506210733 | 12 | 258 | 1.6 | 4.8 | 0.00 | 2.87 | 2.87 | 80 | 1013.5 |
| 20260506210233 | 12 | 146 | 1.6 | 4.8 | 0.00 | 2.87 | 2.87 | 80 | 1013.5 |
| 20260506205731 | 12 | 243 | 1.6 | 4.8 | 0.00 | 2.87 | 2.87 | 80 | 1013.5 |
| 20260506205232 | 12 | 244 | 1.6 | 4.8 | 0.00 | 2.87 | 2.87 | 80 | 1013.5 |
| 20260506204725 | 12 | 222 | 1.6 | 4.8 | 0.00 | 2.87 | 2.87 | 80 | 1013.5 |
| 20260506204222 | 12 | 147 | 1.6 | 3.2 | 0.00 | 2.87 | 2.87 | 80 | 1013.5 |
| 20260506203712 | 12 | 147 | 1.6 | 3.2 | 0.00 | 2.87 | 2.87 | 80 | 1013.4 |
| 20260506203218 | 12 | 280 | 1.6 | 6.4 | 0.00 | 2.87 | 2.87 | 80 | 1013.4 |
| 20260506203058 | 12 | 284 | 1.6 | 6.4 | 0.00 | 2.87 | 2.87 | 80 | 1013.4 |
| 20260506202801 | 12 | 280 | 1.6 | 6.4 | 0.00 | 2.87 | 2.87 | 80 | 1013.4 |
| 20260506201712 | 12 | 224 | 1.6 | 4.8 | 0.00 | 2.87 | 2.87 | 80 | 1013.3 |
| 20260506201206 | 12 | 224 | 1.6 | 4.8 | 0.00 | 2.87 | 2.87 | 80 | 1013.3 |
| 20260506200707 | 12 | 224 | 0.0 | 4.8 | 0.00 | 2.87 | 2.87 | 80 | 1013.2 |
| 20260506200206 | 12 | 224 | 1.6 | 8.0 | 0.00 | 2.87 | 2.87 | 80 | 1013.1 |
| 20260506195705 | 13 | 277 | 1.6 | 8.0 | 0.00 | 2.87 | 2.87 | 80 | 1013.1 |
| 20260506195209 | 13 | 111 | 0.0 | 3.2 | 0.00 | 2.87 | 2.87 | 80 | 1013.1 |
| 20260506194705 | 13 | 118 | 0.0 | 1.6 | 0.00 | 2.87 | 2.87 | 80 | 1013.0 |
| 20260506194259 | 13 | 118 | 0.0 | 1.6 | 0.00 | 2.87 | 2.87 | 80 | 1012.8 |
| 20260506194239 | 13 | 118 | 0.0 | 1.6 | 0.00 | 2.87 | 2.87 | 80 | 1012.9 |
| 20260506193208 | 13 | 118 | 0.0 | 3.2 | 0.00 | 2.87 | 2.87 | 80 | 1012.7 |
| 20260506193006 | 13 | 118 | 0.0 | 3.2 | 0.00 | 2.87 | 2.87 | 80 | 1012.6 |
| 20260506192155 | 13 | 118 | 0.0 | 3.2 | 0.00 | 2.87 | 2.87 | 80 | 1012.6 |
| 20260506191652 | 13 | 118 | 0.0 | 3.2 | 0.00 | 2.87 | 2.87 | 80 | 1012.5 |
| 20260506191156 | 13 | 118 | 1.6 | 6.4 | 0.00 | 2.87 | 2.87 | 80 | 1012.4 |
| 20260506190655 | 13 | 117 | 3.2 | 9.7 | 0.00 | 2.87 | 2.87 | 79 | 1012.4 |
| 20260506190151 | 13 | 170 | 3.2 | 9.7 | 0.00 | 2.87 | 2.87 | 79 | 1012.3 |
| 20260506185654 | 13 | 162 | 3.2 | 12.9 | 0.00 | 2.87 | 2.87 | 79 | 1012.2 |
| 20260506185152 | 13 | 199 | 4.8 | 12.9 | 0.00 | 2.87 | 2.87 | 79 | 1012.1 |
| 20260506184652 | 13 | 165 | 3.2 | 11.3 | 0.00 | 2.87 | 2.87 | 80 | 1012.1 |
| 20260506184152 | 13 | 129 | 3.2 | 11.3 | 0.00 | 2.87 | 2.87 | 80 | 1012.1 |
| 20260506183653 | 13 | 184 | 3.2 | 9.7 | 0.00 | 2.87 | 2.87 | 79 | 1011.9 |
| 20260506183151 | 13 | 199 | 3.2 | 6.4 | 0.00 | 2.87 | 2.87 | 79 | 1012.0 |
| 20260506182652 | 13 | 138 | 3.2 | 8.0 | 0.00 | 2.87 | 2.87 | 79 | 1011.9 |
| 20260506182153 | 13 | 215 | 3.2 | 8.0 | 0.00 | 2.87 | 2.87 | 79 | 1011.9 |
| 20260506181651 | 13 | 221 | 3.2 | 9.7 | 0.00 | 2.87 | 2.87 | 79 | 1011.9 |
| 20260506181145 | 13 | 271 | 3.2 | 9.7 | 0.00 | 2.87 | 2.87 | 79 | 1011.7 |
| 20260506180638 | 13 | 208 | 4.8 | 14.5 | 0.00 | 2.87 | 2.87 | 79 | 1011.5 |
| 20260506180135 | 13 | 142 | 4.8 | 14.5 | 0.00 | 2.87 | 2.87 | 79 | 1011.5 |
| 20260506175921 | 13 | 165 | 3.2 | 11.3 | 0.00 | 2.87 | 2.87 | 79 | 1011.5 |
| 20260506175135 | 13 | 114 | 3.2 | 11.3 | 0.00 | 2.87 | 2.87 | 78 | 1011.4 |
| 20260506174633 | 13 | 59 | 4.8 | 12.9 | 0.00 | 2.87 | 2.87 | 78 | 1011.4 |
| 20260506174132 | 13 | 199 | 4.8 | 12.9 | 0.00 | 2.87 | 2.87 | 78 | 1011.4 |
| 20260506173633 | 13 | 141 | 4.8 | 17.7 | 0.00 | 2.87 | 2.87 | 78 | 1011.3 |
| 20260506173132 | 13 | 79 | 4.8 | 17.7 | 0.00 | 2.87 | 2.87 | 78 | 1011.3 |
| 20260506172632 | 13 | 168 | 4.8 | 14.5 | 0.00 | 2.87 | 2.87 | 78 | 1011.2 |
| 20260506172133 | 13 | 154 | 4.8 | 14.5 | 0.00 | 2.87 | 2.87 | 78 | 1011.3 |
| 20260506171637 | 13 | 175 | 4.8 | 12.9 | 0.00 | 2.87 | 2.87 | 78 | 1011.2 |
| 20260506171133 | 13 | 187 | 6.4 | 14.5 | 0.00 | 2.87 | 2.87 | 78 | 1011.2 |
| 20260506170647 | 13 | 102 | 4.8 | 14.5 | 0.00 | 2.87 | 2.87 | 77 | 1011.3 |
| 20260506170134 | 13 | 183 | 3.2 | 8.0 | 0.00 | 2.87 | 2.87 | 77 | 1011.2 |
| 20260506165635 | 13 | 217 | 4.8 | 16.1 | 0.00 | 2.87 | 2.87 | 78 | 1011.2 |
| 20260506165135 | 13 | 97 | 4.8 | 16.1 | 0.00 | 2.87 | 2.87 | 77 | 1011.2 |
| 20260506164634 | 13 | 168 | 4.8 | 12.9 | 0.00 | 2.87 | 2.87 | 77 | 1011.2 |
| 20260506164132 | 14 | 110 | 3.2 | 12.9 | 0.00 | 2.87 | 2.87 | 77 | 1011.2 |
| 20260506163922 | 13 | 185 | 4.8 | 12.9 | 0.00 | 2.87 | 2.87 | 77 | 1011.2 |
| 20260506163133 | 13 | 192 | 6.4 | 19.3 | 0.00 | 2.87 | 2.87 | 77 | 1011.2 |
| 20260506162632 | 14 | 185 | 4.8 | 19.3 | 0.00 | 2.87 | 2.87 | 77 | 1011.4 |
| 20260506162332 | 14 | 116 | 4.8 | 12.9 | 0.00 | 2.87 | 2.87 | 78 | 1011.2 |
| 20260506162246 | 14 | 209 | 4.8 | 14.5 | 0.00 | 2.87 | 2.87 | 77 | 1011.3 |
| 20260506161146 | 14 | 176 | 3.2 | 11.3 | 0.00 | 2.87 | 2.87 | 77 | 1011.3 |
| 20260506160643 | 14 | 120 | 3.2 | 9.7 | 0.00 | 2.87 | 2.87 | 78 | 1011.2 |
| 20260506160555 | 14 | 195 | 6.4 | 17.7 | 0.00 | 2.87 | 2.87 | 77 | 1011.2 |
| 20260506160542 | 14 | 144 | 4.8 | 14.5 | 0.00 | 2.87 | 2.87 | 78 | 1011.2 |
| 20260506155134 | 14 | 68 | 6.4 | 17.7 | 0.00 | 2.87 | 2.87 | 77 | 1011.1 |
| 20260506154638 | 14 | 162 | 8.0 | 17.7 | 0.00 | 2.87 | 2.87 | 77 | 1011.1 |
| 20260506154128 | 14 | 39 | 6.4 | 17.7 | 0.00 | 2.87 | 2.87 | 77 | 1011.1 |
| 20260506153623 | 14 | 145 | 4.8 | 17.7 | 0.00 | 2.87 | 2.87 | 76 | 1011.2 |
| 20260506153115 | 14 | 142 | 6.4 | 16.1 | 0.00 | 2.87 | 2.87 | 77 | 1011.1 |
| 20260506152605 | 14 | 187 | 6.4 | 16.1 | 0.00 | 2.87 | 2.87 | 76 | 1011.1 |
| 20260506152106 | 14 | 65 | 4.8 | 11.3 | 0.00 | 2.87 | 2.87 | 77 | 1011.1 |
| 20260506151610 | 14 | 118 | 3.2 | 9.7 | 0.00 | 2.87 | 2.87 | 77 | 1011.0 |
| 20260506151108 | 14 | 135 | 4.8 | 14.5 | 0.00 | 2.87 | 2.87 | 77 | 1011.1 |
| 20260506150607 | 14 | 218 | 6.4 | 16.1 | 0.00 | 2.87 | 2.87 | 76 | 1011.0 |
| 20260506150109 | 15 | 99 | 6.4 | 17.7 | 0.00 | 2.87 | 2.87 | 75 | 1011.1 |
| 20260506145606 | 15 | 205 | 4.8 | 17.7 | 0.00 | 2.87 | 2.87 | 75 | 1011.0 |
| 20260506145349 | 15 | 95 | 4.8 | 14.5 | 0.00 | 2.87 | 2.87 | 75 | 1011.1 |
| 20260506144605 | 15 | 212 | 4.8 | 14.5 | 0.00 | 2.87 | 2.87 | 75 | 1011.0 |
| 20260506144105 | 15 | 168 | 4.8 | 14.5 | 0.00 | 2.87 | 2.87 | 75 | 1011.0 |
| 20260506143605 | 15 | 89 | 4.8 | 12.9 | 0.00 | 2.87 | 2.87 | 75 | 1011.0 |
| 20260506143105 | 15 | 81 | 4.8 | 12.9 | 0.00 | 2.87 | 2.87 | 75 | 1011.0 |
| 20260506142841 | 15 | 137 | 6.4 | 16.1 | 0.00 | 2.87 | 2.87 | 75 | 1011.0 |
| 20260506142105 | 15 | 138 | 6.4 | 16.1 | 0.00 | 2.87 | 2.87 | 75 | 1011.0 |
| 20260506141604 | 15 | 199 | 6.4 | 14.5 | 0.00 | 2.87 | 2.87 | 75 | 1011.0 |
| 20260506141107 | 15 | 131 | 8.0 | 17.7 | 0.00 | 2.87 | 2.87 | 76 | 1010.9 |
| 20260506140603 | 15 | 83 | 8.0 | 19.3 | 0.00 | 2.87 | 2.87 | 76 | 1011.0 |
| 20260506140106 | 15 | 173 | 8.0 | 19.3 | 0.00 | 2.87 | 2.87 | 76 | 1011.0 |
| 20260506135604 | 15 | 154 | 6.4 | 17.7 | 0.00 | 2.87 | 2.87 | 77 | 1011.0 |
| 20260506135343 | 15 | 120 | 8.0 | 17.7 | 0.00 | 2.87 | 2.87 | 77 | 1011.0 |
| 20260506134609 | 15 | 107 | 8.0 | 20.9 | 0.00 | 2.87 | 2.87 | 77 | 1011.1 |
| 20260506134106 | 15 | 100 | 8.0 | 20.9 | 0.00 | 2.87 | 2.87 | 77 | 1011.1 |
| 20260506133901 | 15 | 141 | 6.4 | 14.5 | 0.00 | 2.87 | 2.87 | 78 | 1011.2 |
| 20260506133110 | 15 | 170 | 6.4 | 17.7 | 0.00 | 2.87 | 2.87 | 79 | 1011.2 |
| 20260506132609 | 15 | 156 | 6.4 | 17.7 | 0.00 | 2.87 | 2.87 | 78 | 1011.1 |
| 20260506132103 | 15 | 140 | 6.4 | 14.5 | 0.00 | 2.87 | 2.87 | 79 | 1011.2 |
| 20260506131603 | 14 | 135 | 6.4 | 20.9 | 0.00 | 2.87 | 2.87 | 79 | 1011.2 |